FW9470 Weather Reports


time (UTC)temp
F
wind
direction
speed
knots
gust
knots
rain 1hr
in
rain 24hr
in
rain mn
in
humidity
%
barometer
mb
20260906071537 70 0 0.0 0.0 0.00 0.00 0.00 98 1011.0
20260906070041 70 0 0.0 0.0 0.00 0.00 0.00 98 1011.1
20260906064616 70 0 0.0 0.0 0.00 0.00 0.00 98 1011.0
20260906063037 70 0 0.0 0.0 0.00 0.00 0.00 98 1011.4
20260906061540 71 0 0.0 0.0 0.00 0.00 0.00 98 1011.8
20260906060036 70 0 0.0 0.0 0.00 0.00 0.00 98 1011.7
20260906054540 71 0 0.0 0.0 0.00 0.00 0.00 98 1012.0
20260906053038 70 0 0.0 0.0 0.00 0.00 0.00 98 1011.9
20260906051537 70 0 0.0 0.0 0.00 0.00 0.00 98 1012.2
20260906050038 71 0 0.0 0.0 0.00 0.00 0.00 98 1012.2
20260906044543 71 0 0.0 0.0 0.00 0.00 0.00 98 1012.3
20260906043044 71 0 0.0 0.0 0.00 0.00 0.00 98 1011.9
20260906041538 71 0 0.0 0.0 0.00 0.00 0.00 98 1012.1
20260906040039 71 0 0.0 0.0 0.00 0.00 0.00 98 1012.4
20260906034544 71 0 0.0 0.0 0.00 0.00 0.00 98 1012.3
20260906033035 71 0 0.0 0.0 0.00 0.00 0.00 97 1012.5
20260906031546 71 0 0.0 0.0 0.00 0.00 0.00 98 1012.6
20260906030037 71 0 0.0 0.0 0.00 0.00 0.00 98 1012.2
20260906024540 71 0 0.0 0.0 0.00 0.00 0.00 97 1011.9
20260906023042 72 0 0.0 0.0 0.00 0.00 0.00 97 1012.1
20260906021537 72 0 0.0 0.0 0.00 0.00 0.00 97 1012.3
20260906020050 72 0 0.0 0.0 0.00 0.00 0.00 97 1012.3
20260906014546 72 0 0.0 0.0 0.00 0.00 0.00 97 1012.1
20260906013039 72 0 0.0 0.0 0.00 0.00 0.00 97 1012.1
20260906011535 73 0 0.0 0.0 0.00 0.00 0.00 97 1012.0
20260906010039 73 0 0.0 0.0 0.00 0.00 0.00 97 1011.9
20260906004537 73 0 0.0 0.9 0.00 0.00 0.00 97 1011.3
20260906003044 73 0 0.0 0.0 0.00 0.00 0.00 97 1011.2
20260906001539 74 0 0.0 0.9 0.00 0.00 0.00 96 1011.3
20260906000039 74 0 0.0 1.7 0.00 0.00 0.00 96 1011.6
20260905234541 75 0 0.0 0.9 0.00 0.00 0.00 96 1011.3
20260905233042 75 0 0.0 1.7 0.00 0.00 0.00 96 1011.0
20260905231541 75 276 0.0 1.7 0.00 0.00 0.00 95 1011.0
20260905230039 75 207 0.9 2.6 0.00 0.00 0.00 95 1010.7
20260905224537 76 0 0.0 0.9 0.00 0.00 0.00 95 1011.3
20260905223040 76 0 0.0 1.7 0.00 0.00 0.00 94 1011.0
20260905221545 76 0 0.9 2.6 0.00 0.00 0.00 94 1011.1
20260905220038 75 0 0.0 0.9 0.00 0.00 0.00 94 1010.9
20260905214536 76 352 0.0 0.9 0.00 0.00 0.00 95 1011.0
20260905213037 76 0 0.0 0.9 0.00 0.00 0.00 94 1011.5
20260905211544 75 0 0.0 3.5 0.00 0.00 0.00 94 1011.3
20260905210055 75 0 0.0 2.6 0.00 0.00 0.00 94 1011.5
20260905204535 74 0 0.0 1.7 0.00 0.00 0.00 95 1011.5
20260905203041 74 11 0.0 1.7 0.00 0.00 0.00 95 1011.6
20260905201538 73 12 0.9 5.2 0.00 0.00 0.00 96 1011.6
20260905200052 72 0 0.0 1.7 0.00 0.00 0.00 96 1012.1
20260905194538 71 0 0.9 2.6 0.00 0.00 0.00 94 1012.5
20260905193039 72 126 0.0 28.7 0.00 0.00 0.00 89 1013.5
20260905191541 77 360 8.7 23.5 0.00 0.00 0.00 77 1013.4
20260905190037 87 318 6.1 16.5 0.00 0.00 0.00 67 1012.5
20260905184537 94 103 0.0 3.5 0.00 0.00 0.00 55 1010.7
20260905183040 97 0 0.9 2.6 0.00 0.00 0.00 52 1010.8
20260905181537 98 146 0.9 5.2 0.00 0.00 0.00 50 1011.0
20260905180038 98 52 0.0 2.6 0.00 0.00 0.00 48 1011.4
20260905174538 97 33 1.7 5.2 0.00 0.00 0.00 50 1011.8
20260905173039 95 169 0.9 4.3 0.00 0.00 0.00 52 1011.8
20260905171554 96 282 0.9 3.5 0.00 0.00 0.00 54 1012.0
20260905170038 95 0 0.9 5.2 0.00 0.00 0.00 56 1012.3
20260905164540 94 314 1.7 4.3 0.00 0.00 0.00 57 1012.7
20260905163036 94 213 0.9 4.3 0.00 0.00 0.00 58 1012.9
20260905161541 93 0 0.0 4.3 0.00 0.00 0.00 64 1013.0
20260905160044 92 177 1.7 5.2 0.00 0.00 0.00 63 1013.1
20260905154550 91 181 0.9 3.5 0.00 0.00 0.00 65 1013.1
20260905153034 91 338 0.9 4.3 0.00 0.00 0.00 66 1013.3
20260905151537 89 0 0.9 3.5 0.00 0.00 0.00 71 1013.5
20260905150037 88 291 1.7 3.5 0.00 0.00 0.00 73 1013.6
20260905144548 87 233 1.7 4.3 0.00 0.00 0.00 75 1013.6
20260905143038 86 229 1.7 5.2 0.00 0.00 0.00 76 1013.6
20260905141537 84 211 1.7 4.3 0.00 0.00 0.00 79 1013.9
20260905140040 83 246 0.9 3.5 0.00 0.00 0.00 82 1014.0
20260905134543 82 0 0.0 2.6 0.00 0.00 0.00 85 1014.2
20260905133037 80 294 0.9 2.6 0.00 0.00 0.00 87 1014.3
20260905131535 79 215 0.9 3.5 0.00 0.00 0.00 88 1014.1
20260905130035 77 209 0.9 3.5 0.00 0.00 0.00 92 1014.0
20260905124545 75 0 0.0 0.0 0.00 0.00 0.00 96 1014.2
20260905123036 73 0 0.0 0.0 0.00 0.00 0.00 97 1013.8
20260905121537 72 0 0.0 0.0 0.00 0.00 0.00 97 1014.0
20260905120037 71 0 0.0 0.0 0.00 0.00 0.00 97 1013.8
20260905114538 71 0 0.0 0.0 0.00 0.00 0.00 97 1013.8
20260905113036 71 0 0.0 0.0 0.00 0.00 0.00 97 1013.6
20260905111540 71 0 0.0 0.0 0.00 0.00 0.00 97 1013.3
20260905110038 71 0 0.0 0.0 0.00 0.00 0.00 97 1013.2
20260905104544 71 0 0.0 0.0 0.00 0.00 0.00 97 1013.0
20260905103037 71 0 0.0 0.0 0.00 0.00 0.00 97 1012.9
20260905101541 71 0 0.0 0.0 0.00 0.00 0.00 97 1012.8
20260905100038 71 0 0.0 0.0 0.00 0.00 0.00 96 1012.8
20260905094551 71 0 0.0 0.0 0.00 0.00 0.00 96 1012.7
20260905093044 71 0 0.0 0.0 0.00 0.00 0.00 96 1012.9
20260905091537 71 0 0.0 0.0 0.00 0.00 0.00 96 1012.8
20260905090037 71 0 0.0 0.0 0.00 0.00 0.00 96 1012.9
20260905084541 72 0 0.0 0.0 0.00 0.00 0.00 96 1013.0
20260905083036 72 0 0.0 0.0 0.00 0.00 0.00 96 1013.1
20260905081538 72 0 0.0 0.0 0.00 0.00 0.00 96 1013.1
20260905080050 72 0 0.0 0.0 0.00 0.00 0.00 96 1013.4
20260905074535 72 0 0.0 0.0 0.00 0.00 0.00 95 1013.3
20260905073046 73 0 0.0 0.0 0.00 0.00 0.00 95 1013.2